Morrisville, VT

1:35 PM EST on February 11, 2016 (GMT -0500)
Morrisville Stowe State

Weather History for KMVL - March, 2013

Change the Weather History Date:

Sunday, March 24, 2013

  Actual Average Record
Temperature  
Mean Temperature 26 °F 32 °F  
Max Temperature 36 °F 42 °F 53 °F (2003)
Min Temperature 16 °F 21 °F -12 °F (2014)
Degree Days  
Heating Degree Days 39 33  
Month to date heating degree days 835 905  
Since 1 July heating degree days 6367 6865  
Cooling Degree Days 0 0  
Month to date cooling degree days 0 0  
Year to date cooling degree days 0 0  
Moisture  
Dew Point 21 °F    
Average Humidity 68    
Maximum Humidity 84    
Minimum Humidity 52    
Precipitation  
Precipitation T in 0.07 in 0.45 in (1998)
Month to date precipitation 1.71 1.22  
Year to date precipitation 4.42 5.50  
Sea Level Pressure  
Sea Level Pressure 29.84 in    
Wind  
Wind Speed 5 mph (NW)    
Max Wind Speed 14 mph    
Max Gust Speed 21 mph    
Visibility 9 miles    
Events Snow    
T = Trace of Precipitation, MM = Missing Value Source: NWS Daily Summary

Daily Weather History Graph

Daily Weather History Graph

Search for Another Location

Airport or City:

Trip Planner

Search our weather history database for the weather conditions in past years. The results will help you decide how hot, cold, wet, or windy it might be!

Date:

Astronomy

Mar. 24, 2013 Rise Set
Actual Time 6:45 AM EDT 7:08 PM EDT
Civil Twilight 6:16 AM EDT 7:37 PM EDT
Nautical Twilight 5:42 AM EDT 8:11 PM EDT
Astronomical Twilight 5:07 AM EDT 8:47 PM EDT
Moon 4:28 PM EDT (3/24) 5:00 AM EDT (3/24)
Length of Visible Light 13h 20m
Length of Day
12h 22m
Waxing Gibbous, 91% of the Moon is Illuminated
Mar 24
Waxing Gibbous
Mar 27
Full
Apr 3
Last Quarter
Apr 10
New
Apr 18
First Quarter

Hourly Weather History & Observations

Time (EDT) Temp. Windchill Dew Point Humidity Pressure Visibility Wind Dir Wind Speed Gust Speed Precip Events Conditions
12:54 AM 32.0 °F 23.6 °F 21.0 °F 64% 29.81 in 10.0 mi NW 10.4 mph 19.6 mph N/A   Overcast
1:54 AM 32.0 °F 25.6 °F 21.0 °F 64% 29.82 in 10.0 mi NW 6.9 mph - N/A   Overcast
2:54 AM 32.0 °F 24.2 °F 21.9 °F 66% 29.82 in 10.0 mi NW 9.2 mph 18.4 mph 0.00 in   Overcast
3:54 AM 30.9 °F 25.2 °F 21.9 °F 69% 29.81 in 4.0 mi NW 5.8 mph - 0.00 in Snow Light Snow
4:52 AM 30.2 °F 24.3 °F 23.0 °F 75% 29.77 in 9.0 mi NW 5.8 mph - 0.00 in Snow Light Snow
4:54 AM 30.0 °F 25.2 °F 23.0 °F 75% 29.81 in 8.0 mi NW 4.6 mph - 0.00 in Snow Light Snow
5:35 AM 30.2 °F - 23.0 °F 75% 29.78 in 10.0 mi Calm Calm - 0.00 in   Overcast
5:54 AM 30.0 °F 26.5 °F 23.0 °F 75% 29.80 in 10.0 mi NNW 3.5 mph - 0.00 in   Overcast
6:54 AM 30.9 °F 26.2 °F 21.9 °F 69% 29.83 in 10.0 mi NNW 4.6 mph - N/A   Overcast
7:54 AM 30.9 °F 23.5 °F 23.0 °F 72% 29.87 in 10.0 mi NW 8.1 mph - N/A   Overcast
8:07 AM 30.2 °F 24.3 °F 23.0 °F 75% 29.85 in 4.0 mi WNW 5.8 mph - 0.00 in Snow Light Snow
8:23 AM 30.2 °F 22.6 °F 23.0 °F 75% 29.85 in 8.0 mi WNW 8.1 mph - 0.00 in Snow Light Snow
8:54 AM 30.9 °F 26.2 °F 23.0 °F 72% 29.88 in 9.0 mi Variable 4.6 mph - 0.00 in Snow Light Snow
9:54 AM 33.1 °F 27.7 °F 23.0 °F 66% 29.88 in 10.0 mi NNW 5.8 mph - 0.00 in   Overcast
10:54 AM 33.1 °F 24.9 °F 21.9 °F 64% 29.88 in 10.0 mi NNW 10.4 mph 17.3 mph N/A   Overcast
11:46 AM 33.8 °F 25.3 °F 21.2 °F 60% 29.85 in 10.0 mi NNW 11.5 mph 16.1 mph N/A   Overcast
11:54 AM 34.0 °F 26.0 °F 21.0 °F 59% 29.88 in 10.0 mi North 10.4 mph 16.1 mph N/A   Overcast
12:54 PM 35.1 °F 27.4 °F 21.0 °F 57% 29.87 in 10.0 mi NW 10.4 mph - N/A   Overcast
1:54 PM 35.1 °F 29.3 °F 19.9 °F 54% 29.87 in 10.0 mi NW 6.9 mph 18.4 mph N/A   Overcast
2:54 PM 36.0 °F 29.6 °F 21.0 °F 55% 29.86 in 10.0 mi North 8.1 mph - N/A   Overcast
3:54 PM 35.1 °F 30.1 °F 21.0 °F 57% 29.86 in 10.0 mi NW 5.8 mph - N/A   Overcast
4:54 PM 35.1 °F 29.3 °F 21.0 °F 57% 29.84 in 10.0 mi NNW 6.9 mph - N/A   Overcast
5:54 PM 34.0 °F 26.6 °F 21.0 °F 59% 29.84 in 10.0 mi NNW 9.2 mph - N/A   Overcast
6:54 PM 33.1 °F 30.0 °F 21.0 °F 61% 29.84 in 10.0 mi NW 3.5 mph - N/A   Mostly Cloudy
8:54 PM 26.1 °F - 18.0 °F 71% 29.86 in 10.0 mi Calm Calm - N/A   Clear
9:54 PM 24.1 °F - 18.0 °F 77% 29.87 in 10.0 mi Calm Calm - N/A   Scattered Clouds
10:54 PM 19.9 °F - 16.0 °F 85% 29.86 in 10.0 mi Calm Calm - N/A   Clear
11:54 PM 19.9 °F 14.9 °F 16.0 °F 85% 29.85 in 10.0 mi South 3.5 mph - N/A   Clear